UAE545 YSSY-YMML

Flight info

Callsign UAE545
Flight time N/A
Altitude 38000
Route WOL H65 LEECE Q29 ML
Aircraft B77W/H-SDE1E2E3FGHIJ2J3J4J5M1RWXY/LB1D1

Departure

Time 2026-05-06 07:27
Airport Sydney Kingsford Smith International Airport (YSSY)

Arrival

Time N/A
Airport Melbourne Airport (YMML)
Time Latitude Longitude Altitude Speed Heading
2026-05-06 07:05 -33.93949 151.16398 34 ft 0 kts 123°
2026-05-06 07:16 -33.93942 151.16385 35 ft 4 kts 130°
2026-05-06 07:16 -33.93924 151.16374 34 ft 4 kts 197°
2026-05-06 07:17 -33.93900 151.16388 33 ft 4 kts 217°
2026-05-06 07:17 -33.93891 151.16396 33 ft 1 kts 219°
2026-05-06 07:17 -33.93890 151.16397 33 ft 0 kts 219°
2026-05-06 07:21 -33.93899 151.16386 33 ft 7 kts 226°
2026-05-06 07:21 -33.93977 151.16304 35 ft 12 kts 203°
2026-05-06 07:21 -33.94064 151.16277 35 ft 14 kts 191°
2026-05-06 07:21 -33.94167 151.16329 35 ft 21 kts 120°
2026-05-06 07:22 -33.94143 151.16503 35 ft 22 kts 72°
2026-05-06 07:22 -33.94099 151.16675 35 ft 22 kts 73°
2026-05-06 07:22 -33.94058 151.16849 35 ft 22 kts 76°
2026-05-06 07:22 -33.94020 151.17023 35 ft 22 kts 74°
2026-05-06 07:23 -33.93975 151.17190 34 ft 14 kts 58°
2026-05-06 07:23 -33.93886 151.17204 34 ft 14 kts 346°
2026-05-06 07:23 -33.93779 151.17172 34 ft 18 kts 347°
2026-05-06 07:23 -33.93637 151.17138 34 ft 24 kts 349°
2026-05-06 07:24 -33.93465 151.17100 34 ft 28 kts 349°
2026-05-06 07:24 -33.93259 151.17057 35 ft 32 kts 350°
2026-05-06 07:24 -33.93107 151.16934 34 ft 18 kts 332°
2026-05-06 07:24 -33.93004 151.16939 35 ft 9 kts 39°
2026-05-06 07:25 -33.92973 151.17007 35 ft 10 kts 76°
2026-05-06 07:25 -33.92970 151.17023 35 ft 0 kts 78°
2026-05-06 07:25 -33.92966 151.17046 35 ft 11 kts 78°
2026-05-06 07:25 -33.93009 151.17177 35 ft 20 kts 158°
2026-05-06 07:26 -33.93163 151.17215 36 ft 32 kts 168°
2026-05-06 07:26 -33.93607 151.17334 31 ft 108 kts 167°
2026-05-06 07:26 -33.94601 151.17600 49 ft 179 kts 165°
2026-05-06 07:26 -33.95908 151.17925 607 ft 192 kts 166°
2026-05-06 07:27 -33.97224 151.18185 1537 ft 194 kts 179°
2026-05-06 07:27 -33.98581 151.18065 2324 ft 205 kts 187°
2026-05-06 07:27 -34.00104 151.17860 2741 ft 236 kts 188°
2026-05-06 07:27 -34.01844 151.17635 3290 ft 260 kts 187°
2026-05-06 07:28 -34.03672 151.17676 4154 ft 269 kts 167°
2026-05-06 07:28 -34.05463 151.18368 5108 ft 274 kts 164°
2026-05-06 07:28 -34.09156 151.19658 7251 ft 280 kts 167°
2026-05-06 07:29 -34.11058 151.20294 8212 ft 287 kts 167°
2026-05-06 07:29 -34.13005 151.20943 9200 ft 293 kts 167°
2026-05-06 07:29 -34.14988 151.21605 10179 ft 298 kts 167°
2026-05-06 07:29 -34.17046 151.22287 10790 ft 317 kts 168°
2026-05-06 07:30 -34.19310 151.22510 10975 ft 341 kts 192°
2026-05-06 07:30 -34.21526 151.21377 11445 ft 354 kts 221°
2026-05-06 07:30 -34.23183 151.19236 12248 ft 357 kts 234°
2026-05-06 07:30 -34.24769 151.16885 13261 ft 364 kts 233°
2026-05-06 07:31 -34.26409 151.14531 14437 ft 367 kts 232°
2026-05-06 07:31 -34.28071 151.12176 15543 ft 370 kts 232°
2026-05-06 07:31 -34.29757 151.09797 16588 ft 375 kts 232°
2026-05-06 07:31 -34.31471 151.07381 17595 ft 381 kts 232°
2026-05-06 07:32 -34.33206 151.04934 18588 ft 387 kts 232°
2026-05-06 07:32 -34.34971 151.02444 19494 ft 391 kts 232°
2026-05-06 07:32 -34.36752 150.99928 20405 ft 396 kts 232°
2026-05-06 07:32 -34.38649 150.97479 21298 ft 403 kts 227°
2026-05-06 07:33 -34.40743 150.95189 22169 ft 409 kts 224°
2026-05-06 07:33 -34.42920 150.92930 23024 ft 415 kts 224°
2026-05-06 07:33 -34.45122 150.90639 23831 ft 420 kts 224°
2026-05-06 07:33 -34.47336 150.88293 24510 ft 425 kts 225°
2026-05-06 07:34 -34.49553 150.85904 25189 ft 429 kts 225°
2026-05-06 07:34 -34.51790 150.83473 25870 ft 434 kts 225°
2026-05-06 07:34 -34.54048 150.81011 26516 ft 439 kts 225°
2026-05-06 07:34 -34.56295 150.78475 27122 ft 441 kts 230°
2026-05-06 07:35 -34.58247 150.75595 27672 ft 444 kts 237°
2026-05-06 07:35 -34.60055 150.72527 28279 ft 448 kts 238°
2026-05-06 07:35 -34.61837 150.69408 28911 ft 451 kts 238°
2026-05-06 07:35 -34.63636 150.66269 29503 ft 456 kts 238°
2026-05-06 07:36 -34.65476 150.63105 30056 ft 460 kts 238°
2026-05-06 07:36 -34.67324 150.59972 30515 ft 464 kts 238°
2026-05-06 07:36 -34.69223 150.56785 30958 ft 467 kts 238°
2026-05-06 07:36 -34.71138 150.53590 31453 ft 468 kts 238°
2026-05-06 07:37 -34.73054 150.50401 32077 ft 465 kts 238°
2026-05-06 07:37 -34.74953 150.47240 32734 ft 461 kts 238°
2026-05-06 07:37 -34.76838 150.44098 33429 ft 458 kts 238°
2026-05-06 07:37 -34.78705 150.40980 34029 ft 455 kts 238°
2026-05-06 07:38 -34.80564 150.37870 34528 ft 453 kts 239°
2026-05-06 07:38 -34.82418 150.34764 34936 ft 454 kts 239°
2026-05-06 07:38 -34.84270 150.31652 35345 ft 453 kts 239°
2026-05-06 07:38 -34.86116 150.28549 35801 ft 452 kts 239°
2026-05-06 07:39 -34.87955 150.25457 36252 ft 450 kts 239°
2026-05-06 07:39 -34.89788 150.22367 36720 ft 448 kts 239°
2026-05-06 07:39 -34.91614 150.19296 37198 ft 446 kts 240°
2026-05-06 07:39 -34.93412 150.16273 37637 ft 445 kts 240°
2026-05-06 07:40 -34.95222 150.13223 37999 ft 445 kts 240°
2026-05-06 07:40 -34.97043 150.10144 38061 ft 450 kts 240°
2026-05-06 07:40 -35.00713 150.03939 38069 ft 450 kts 240°
2026-05-06 07:41 -35.04349 149.97790 38074 ft 443 kts 240°
2026-05-06 07:41 -35.07942 149.91700 38075 ft 442 kts 240°
2026-05-06 07:42 -35.11534 149.85612 38073 ft 441 kts 240°
2026-05-06 07:42 -35.15123 149.79516 38091 ft 443 kts 240°
2026-05-06 07:43 -35.18727 149.73384 38080 ft 445 kts 240°
2026-05-06 07:43 -35.22345 149.67217 38087 ft 447 kts 240°
2026-05-06 07:44 -35.25951 149.61060 38090 ft 449 kts 240°
2026-05-06 07:44 -35.29588 149.54839 38098 ft 450 kts 240°
2026-05-06 07:45 -35.33230 149.48599 38104 ft 450 kts 240°
2026-05-06 07:45 -35.36873 149.42348 38093 ft 450 kts 240°
2026-05-06 07:46 -35.40502 149.36110 38098 ft 449 kts 240°
2026-05-06 07:46 -35.44123 149.29871 38098 ft 449 kts 240°
2026-05-06 07:47 -35.47738 149.23633 38092 ft 448 kts 240°
2026-05-06 07:47 -35.51347 149.17392 38101 ft 448 kts 240°
2026-05-06 07:48 -35.54949 149.11154 38093 ft 448 kts 240°
2026-05-06 07:48 -35.58529 149.04942 38079 ft 448 kts 240°
2026-05-06 07:49 -35.62129 148.98686 38083 ft 449 kts 240°
2026-05-06 07:49 -35.65730 148.92415 38080 ft 449 kts 241°
2026-05-06 07:50 -35.69326 148.86146 38089 ft 448 kts 241°
2026-05-06 07:50 -35.72916 148.79865 38080 ft 449 kts 241°
2026-05-06 07:51 -35.76512 148.73571 38107 ft 449 kts 241°
2026-05-06 07:51 -35.80102 148.67274 38106 ft 449 kts 241°
2026-05-06 07:52 -35.83690 148.60968 38088 ft 449 kts 241°
2026-05-06 07:52 -35.87248 148.54705 38113 ft 449 kts 241°
2026-05-06 07:53 -35.90820 148.48389 38102 ft 448 kts 242°
2026-05-06 07:53 -35.94365 148.42078 38110 ft 447 kts 242°
2026-05-06 07:54 -35.97900 148.35782 38129 ft 446 kts 242°
2026-05-06 07:54 -36.01432 148.29474 38116 ft 447 kts 242°
2026-05-06 07:55 -36.04963 148.23161 38123 ft 446 kts 242°
2026-05-06 07:55 -36.08492 148.16838 38111 ft 448 kts 242°
2026-05-06 07:56 -36.11436 148.11557 38144 ft 449 kts 242°
2026-05-06 07:56 -36.15569 148.04155 38139 ft 450 kts 241°
2026-05-06 07:57 -36.18556 147.98808 38128 ft 451 kts 241°
2026-05-06 07:57 -36.22693 147.91381 38141 ft 451 kts 242°
2026-05-06 07:58 -36.25657 147.86050 38144 ft 451 kts 242°
2026-05-06 07:58 -36.29215 147.79636 38136 ft 452 kts 242°
2026-05-06 07:59 -36.32773 147.73215 38147 ft 451 kts 242°
2026-05-06 07:59 -36.36319 147.66794 38144 ft 451 kts 242°
2026-05-06 08:00 -36.39853 147.60378 38153 ft 450 kts 242°
2026-05-06 08:00 -36.43379 147.53960 38154 ft 449 kts 242°
2026-05-06 08:01 -36.46894 147.47551 38148 ft 449 kts 242°
2026-05-06 08:01 -36.50402 147.41145 38135 ft 448 kts 242°
2026-05-06 08:02 -36.53876 147.34792 38164 ft 447 kts 242°
2026-05-06 08:02 -36.57360 147.28400 38143 ft 446 kts 242°
2026-05-06 08:03 -36.60834 147.22024 37782 ft 444 kts 242°
2026-05-06 08:03 -36.62564 147.18840 37378 ft 445 kts 242°
2026-05-06 08:03 -36.64297 147.15647 37051 ft 442 kts 242°
2026-05-06 08:04 -36.65991 147.12537 37041 ft 427 kts 243°
2026-05-06 08:04 -36.67640 147.09498 36852 ft 425 kts 243°
2026-05-06 08:04 -36.69298 147.06429 36578 ft 428 kts 243°
2026-05-06 08:04 -36.70961 147.03352 36170 ft 428 kts 243°
2026-05-06 08:05 -36.72630 147.00267 35742 ft 429 kts 243°
2026-05-06 08:05 -36.74299 146.97184 35328 ft 429 kts 243°
2026-05-06 08:05 -36.75966 146.94107 35007 ft 426 kts 243°
2026-05-06 08:05 -36.77620 146.91056 34771 ft 422 kts 243°
2026-05-06 08:06 -36.79255 146.88031 34480 ft 419 kts 243°
2026-05-06 08:06 -36.80881 146.85018 34148 ft 418 kts 243°
2026-05-06 08:06 -36.82498 146.82020 33806 ft 415 kts 244°
2026-05-06 08:06 -36.84103 146.79039 33562 ft 411 kts 243°
2026-05-06 08:07 -36.85670 146.76124 33229 ft 409 kts 243°
2026-05-06 08:07 -36.87248 146.73187 32832 ft 405 kts 243°
2026-05-06 08:07 -36.88813 146.70276 32366 ft 402 kts 243°
2026-05-06 08:07 -36.90363 146.67387 31884 ft 399 kts 243°
2026-05-06 08:08 -36.91900 146.64521 31445 ft 395 kts 244°
2026-05-06 08:08 -36.93423 146.61674 30995 ft 393 kts 244°
2026-05-06 08:08 -36.94940 146.58841 30544 ft 391 kts 244°
2026-05-06 08:08 -36.96445 146.56023 30049 ft 389 kts 244°
2026-05-06 08:09 -36.97941 146.53222 29547 ft 386 kts 244°
2026-05-06 08:09 -36.99429 146.50436 29044 ft 383 kts 244°
2026-05-06 08:09 -37.00899 146.47679 28602 ft 380 kts 244°
2026-05-06 08:09 -37.02360 146.44934 28133 ft 377 kts 244°
2026-05-06 08:10 -37.03809 146.42212 27678 ft 375 kts 244°
2026-05-06 08:10 -37.05249 146.39506 27228 ft 372 kts 244°
2026-05-06 08:10 -37.06680 146.36813 26801 ft 371 kts 244°
2026-05-06 08:10 -37.08108 146.34129 26347 ft 369 kts 244°
2026-05-06 08:11 -37.09526 146.31457 25897 ft 367 kts 244°
2026-05-06 08:11 -37.10917 146.28831 25460 ft 365 kts 244°
2026-05-06 08:11 -37.12315 146.26186 25029 ft 364 kts 244°
2026-05-06 08:11 -37.13709 146.23546 24596 ft 362 kts 244°
2026-05-06 08:12 -37.15096 146.20917 24168 ft 361 kts 244°
2026-05-06 08:12 -37.16477 146.18297 23728 ft 360 kts 244°
2026-05-06 08:12 -37.17853 146.15686 23220 ft 358 kts 244°
2026-05-06 08:12 -37.19223 146.13086 22779 ft 356 kts 244°
2026-05-06 08:13 -37.20585 146.10499 22337 ft 354 kts 244°
2026-05-06 08:13 -37.21936 146.07930 21900 ft 352 kts 243°
2026-05-06 08:13 -37.23277 146.05379 21433 ft 348 kts 243°
2026-05-06 08:13 -37.24599 146.02862 21086 ft 344 kts 243°
2026-05-06 08:14 -37.25913 146.00358 20623 ft 342 kts 243°
2026-05-06 08:14 -37.27214 145.97875 20233 ft 339 kts 243°
2026-05-06 08:14 -37.28510 145.95402 19811 ft 338 kts 243°
2026-05-06 08:14 -37.29797 145.92943 19401 ft 336 kts 243°
2026-05-06 08:15 -37.31078 145.90497 18992 ft 334 kts 243°
2026-05-06 08:15 -37.32357 145.88068 18587 ft 333 kts 243°
2026-05-06 08:15 -37.33636 145.85638 18144 ft 333 kts 243°
2026-05-06 08:15 -37.34896 145.83246 17712 ft 332 kts 243°
2026-05-06 08:16 -37.36165 145.80837 17277 ft 329 kts 243°
2026-05-06 08:16 -37.37429 145.78440 16866 ft 329 kts 243°
2026-05-06 08:16 -37.38688 145.76042 16435 ft 328 kts 242°
2026-05-06 08:16 -37.39938 145.73664 16046 ft 325 kts 242°
2026-05-06 08:17 -37.41181 145.71292 15640 ft 323 kts 242°
2026-05-06 08:17 -37.42413 145.68936 15239 ft 322 kts 242°
2026-05-06 08:17 -37.43640 145.66593 14858 ft 320 kts 242°
2026-05-06 08:17 -37.44710 145.64218 14451 ft 304 kts 253°
2026-05-06 08:18 -37.45108 145.61660 14083 ft 297 kts 270°
2026-05-06 08:18 -37.45085 145.59070 13695 ft 296 kts 272°
2026-05-06 08:18 -37.45035 145.56488 13255 ft 294 kts 272°
2026-05-06 08:18 -37.44992 145.53929 12894 ft 292 kts 272°
2026-05-06 08:19 -37.44953 145.51376 12494 ft 291 kts 272°
2026-05-06 08:19 -37.44918 145.48836 12135 ft 290 kts 271°
2026-05-06 08:19 -37.44884 145.46300 11760 ft 289 kts 271°
2026-05-06 08:19 -37.44850 145.43777 11401 ft 288 kts 271°
2026-05-06 08:20 -37.44816 145.41264 11047 ft 287 kts 271°
2026-05-06 08:20 -37.44784 145.38756 10684 ft 286 kts 271°
2026-05-06 08:20 -37.44755 145.36267 10426 ft 281 kts 271°
2026-05-06 08:20 -37.44725 145.33835 10253 ft 275 kts 271°
2026-05-06 08:21 -37.44695 145.31459 10122 ft 268 kts 271°